sat.trackr.live / text

‹ back to catalog

STARLINK-35237

NORAD 65645 · 2025-210Z

PAYLOAD ACTIVE UNKNOWN

§ Identity

Operator
Country
US
Launch date
2025-09-18
Launch site
AFETR
Launch vehicle
Mass (kg)
RCS (m²)

Purposes: comms

External: N2YO · Heavens-Above · Gunter

§ Orbital elements

Epoch: 2026-05-25T03:43:14.833056Z

Period
94.11 min
Inclination
53.1600°
Eccentricity
0.0001118
Mean motion
15.30204112 rev/d
Perigee alt
474.4 km
Apogee alt
476.0 km
Semi-major
6,853.3 km
B*
6.6743e-4
RAAN
312.2316°
Arg perigee
111.8486°
Mean anomaly
248.2634°
Rev number
3,943

§ Raw data

STARLINK-352371 65645U 25210Z   26145.15503279  .00019463  00000+0  66743-3 0  99972 65645  53.1600 312.2316 0001118 111.8486 248.2634 15.30204112 39438

JSON: /api/v1/satellites/65645 · /tle

For live sub-satellite position, see the globe view (requires WebGL).

§ Visibility from observer

Set your observer location to see the next 7 days of passes ≥ 10°. The values pass through the URL so the page stays shareable.

No JS? Fill the form by hand. The geolocation button needs JavaScript.